owner,sensor,date,latitude,longitude,vertical_datum,wind_speed,wind_to_direction,wind_speed_of_gust,qcFlag 
DISL,ioos:station:DISL:CATA:1,2015-07-01T00:00:00Z,30.3085,-88.1395,0.0,4.94,180.4,-9999.0,'1111122,1111122,1111122' 
DISL,ioos:station:DISL:CATA:1,2015-07-01T00:30:00Z,30.3085,-88.1395,0.0,4.21,172.1,-9999.0,'1111122,1111122,1111122' 
DISL,ioos:station:DISL:CATA:1,2015-07-01T01:00:00Z,30.3085,-88.1395,0.0,3.32,151.5,-9999.0,'1111122,1111122,1111122' 
DISL,ioos:station:DISL:CATA:1,2015-07-01T01:30:00Z,30.3085,-88.1395,0.0,5.23,173.5,-9999.0,'1111122,1111122,1111122' 
DISL,ioos:station:DISL:CATA:1,2015-07-01T02:00:00Z,30.3085,-88.1395,0.0,6.81,174.4,-9999.0,'1111122,1111122,1111122' 
DISL,ioos:station:DISL:CATA:1,2015-07-01T02:30:00Z,30.3085,-88.1395,0.0,7.94,189.2,-9999.0,'1111122,1111122,1111122' 
DISL,ioos:station:DISL:CATA:1,2015-07-01T03:00:00Z,30.3085,-88.1395,0.0,8.52,203.7,-9999.0,'1111122,1111122,1111122' 
DISL,ioos:station:DISL:CATA:1,2015-07-01T03:30:00Z,30.3085,-88.1395,0.0,8.57,214.9,-9999.0,'1111122,1111122,1111122' 
DISL,ioos:station:DISL:CATA:1,2015-07-01T04:00:00Z,30.3085,-88.1395,0.0,7.82,248.8,-9999.0,'1111122,1111122,1111122' 
DISL,ioos:station:DISL:CATA:1,2015-07-01T04:30:00Z,30.3085,-88.1395,0.0,7.45,267.9,-9999.0,'1111122,1111122,1111122' 
DISL,ioos:station:DISL:CATA:1,2015-07-01T05:00:00Z,30.3085,-88.1395,0.0,5.95,308.1,-9999.0,'1111122,1111122,1111122' 
DISL,ioos:station:DISL:CATA:1,2015-07-01T05:30:00Z,30.3085,-88.1395,0.0,3.71,300.6,-9999.0,'1111122,1111122,1111122' 
DISL,ioos:station:DISL:CATA:1,2015-07-01T06:00:00Z,30.3085,-88.1395,0.0,6.18,283.8,-9999.0,'1111122,1111122,1111122' 
DISL,ioos:station:DISL:CATA:1,2015-07-01T06:30:00Z,30.3085,-88.1395,0.0,5.47,282.2,-9999.0,'1111122,1111122,1111122' 
DISL,ioos:station:DISL:CATA:1,2015-07-01T07:00:00Z,30.3085,-88.1395,0.0,4.29,299.1,-9999.0,'1111122,1111122,1111122' 
DISL,ioos:station:DISL:CATA:1,2015-07-01T07:30:00Z,30.3085,-88.1395,0.0,4.48,274.6,-9999.0,'1111122,1111122,1111122' 
DISL,ioos:station:DISL:CATA:1,2015-07-01T08:00:00Z,30.3085,-88.1395,0.0,7.7,263.3,-9999.0,'1111122,1111122,1111122' 
DISL,ioos:station:DISL:CATA:1,2015-07-01T08:30:00Z,30.3085,-88.1395,0.0,5.53,264.2,-9999.0,'1111122,1111122,1111122' 
DISL,ioos:station:DISL:CATA:1,2015-07-01T09:00:00Z,30.3085,-88.1395,0.0,2.56,12.3,-9999.0,'1111122,1111122,1111122' 
DISL,ioos:station:DISL:CATA:1,2015-07-01T09:30:00Z,30.3085,-88.1395,0.0,0.66,47.63,-9999.0,'1111122,1111122,1111122' 
DISL,ioos:station:DISL:CATA:1,2015-07-01T10:00:00Z,30.3085,-88.1395,0.0,1.14,23.5,-9999.0,'1111122,1111122,1111122' 
DISL,ioos:station:DISL:CATA:1,2015-07-01T10:30:00Z,30.3085,-88.1395,0.0,3.0,345.6,-9999.0,'1111122,1111122,1111122' 
DISL,ioos:station:DISL:CATA:1,2015-07-01T11:00:00Z,30.3085,-88.1395,0.0,3.42,316.4,-9999.0,'1111122,1111122,1111122' 
DISL,ioos:station:DISL:CATA:1,2015-07-01T11:30:00Z,30.3085,-88.1395,0.0,2.9,322.3,-9999.0,'1111122,1111122,1111122' 
DISL,ioos:station:DISL:CATA:1,2015-07-01T12:00:00Z,30.3085,-88.1395,0.0,2.66,292.8,-9999.0,'1111122,1111122,1111122' 
DISL,ioos:station:DISL:CATA:1,2015-07-01T12:30:00Z,30.3085,-88.1395,0.0,1.1,4.821,-9999.0,'1111122,1111122,1111122' 
DISL,ioos:station:DISL:CATA:1,2015-07-01T13:00:00Z,30.3085,-88.1395,0.0,0.7,222.7,-9999.0,'1111122,1111122,1111122' 
DISL,ioos:station:DISL:CATA:1,2015-07-01T13:30:00Z,30.3085,-88.1395,0.0,2.62,274.7,-9999.0,'1111122,1111122,1111122' 
DISL,ioos:station:DISL:CATA:1,2015-07-01T14:00:00Z,30.3085,-88.1395,0.0,3.07,295.9,-9999.0,'1111122,1111122,1111122' 
DISL,ioos:station:DISL:CATA:1,2015-07-01T14:30:00Z,30.3085,-88.1395,0.0,2.72,285.1,-9999.0,'1111122,1111122,1111122' 
DISL,ioos:station:DISL:CATA:1,2015-07-01T15:00:00Z,30.3085,-88.1395,0.0,2.07,270.1,-9999.0,'1111122,1111122,1111122' 
DISL,ioos:station:DISL:CATA:1,2015-07-01T15:30:00Z,30.3085,-88.1395,0.0,2.07,261.2,-9999.0,'1111122,1111122,1111122' 
DISL,ioos:station:DISL:CATA:1,2015-07-01T16:00:00Z,30.3085,-88.1395,0.0,2.75,233.7,-9999.0,'1111122,1111122,1111122' 
DISL,ioos:station:DISL:CATA:1,2015-07-01T16:30:00Z,30.3085,-88.1395,0.0,3.83,228.5,-9999.0,'1111122,1111122,1111122' 
DISL,ioos:station:DISL:CATA:1,2015-07-01T17:00:00Z,30.3085,-88.1395,0.0,4.29,217.1,-9999.0,'1111122,1111122,1111122' 
DISL,ioos:station:DISL:CATA:1,2015-07-01T17:30:00Z,30.3085,-88.1395,0.0,4.78,204.0,-9999.0,'1111122,1111122,1111122' 
DISL,ioos:station:DISL:CATA:1,2015-07-01T18:00:00Z,30.3085,-88.1395,0.0,3.97,209.6,-9999.0,'1111122,1111122,1111122' 
DISL,ioos:station:DISL:CATA:1,2015-07-01T18:30:00Z,30.3085,-88.1395,0.0,3.87,220.9,-9999.0,'1111122,1111122,1111122' 
DISL,ioos:station:DISL:CATA:1,2015-07-01T19:00:00Z,30.3085,-88.1395,0.0,4.03,219.4,-9999.0,'1111122,1111122,1111122' 
DISL,ioos:station:DISL:CATA:1,2015-07-01T19:30:00Z,30.3085,-88.1395,0.0,5.35,218.0,-9999.0,'1111122,1111122,1111122' 
DISL,ioos:station:DISL:CATA:1,2015-07-01T20:00:00Z,30.3085,-88.1395,0.0,6.53,221.2,-9999.0,'1111122,1111122,1111122' 
DISL,ioos:station:DISL:CATA:1,2015-07-01T20:30:00Z,30.3085,-88.1395,0.0,6.26,223.7,-9999.0,'1111122,1111122,1111122' 
DISL,ioos:station:DISL:CATA:1,2015-07-01T21:00:00Z,30.3085,-88.1395,0.0,7.24,225.9,-9999.0,'1111122,1111122,1111122' 
DISL,ioos:station:DISL:CATA:1,2015-07-01T21:30:00Z,30.3085,-88.1395,0.0,8.71,230.5,-9999.0,'1111122,1111122,1111122' 
DISL,ioos:station:DISL:CATA:1,2015-07-01T22:00:00Z,30.3085,-88.1395,0.0,13.81,250.7,-9999.0,'1111122,1111122,1111122' 
DISL,ioos:station:DISL:CATA:1,2015-07-01T22:30:00Z,30.3085,-88.1395,0.0,10.67,261.2,-9999.0,'1111122,1111122,1111122' 
DISL,ioos:station:DISL:CATA:1,2015-07-01T23:00:00Z,30.3085,-88.1395,0.0,6.96,259.9,-9999.0,'1111122,1111122,1111122' 
DISL,ioos:station:DISL:CATA:1,2015-07-01T23:30:00Z,30.3085,-88.1395,0.0,6.22,271.3,-9999.0,'1111122,1111122,1111122' 
DISL,ioos:station:DISL:CATA:1,2015-07-02T00:00:00Z,30.3085,-88.1395,0.0,4.25,335.3,-9999.0,'1111122,1111122,1111122' 
DISL,ioos:station:DISL:CATA:1,2015-07-02T00:30:00Z,30.3085,-88.1395,0.0,5.1,300.1,-9999.0,'1111122,1111122,1111122' 
DISL,ioos:station:DISL:CATA:1,2015-07-02T01:00:00Z,30.3085,-88.1395,0.0,4.55,321.3,-9999.0,'1111122,1111122,1111122' 
DISL,ioos:station:DISL:CATA:1,2015-07-02T01:30:00Z,30.3085,-88.1395,0.0,5.17,321.8,-9999.0,'1111122,1111122,1111122' 
DISL,ioos:station:DISL:CATA:1,2015-07-02T02:00:00Z,30.3085,-88.1395,0.0,4.28,312.6,-9999.0,'1111122,1111122,1111122' 
DISL,ioos:station:DISL:CATA:1,2015-07-02T02:30:00Z,30.3085,-88.1395,0.0,2.6,322.6,-9999.0,'1111122,1111122,1111122' 
DISL,ioos:station:DISL:CATA:1,2015-07-02T03:00:00Z,30.3085,-88.1395,0.0,2.57,275.2,-9999.0,'1111122,1111122,1111122' 
DISL,ioos:station:DISL:CATA:1,2015-07-02T03:30:00Z,30.3085,-88.1395,0.0,4.15,240.6,-9999.0,'1111122,1111122,1111122' 
DISL,ioos:station:DISL:CATA:1,2015-07-02T04:00:00Z,30.3085,-88.1395,0.0,3.93,228.2,-9999.0,'1111122,1111122,1111122' 
DISL,ioos:station:DISL:CATA:1,2015-07-02T04:30:00Z,30.3085,-88.1395,0.0,4.74,226.8,-9999.0,'1111122,1111122,1111122' 
DISL,ioos:station:DISL:CATA:1,2015-07-02T05:00:00Z,30.3085,-88.1395,0.0,3.34,249.5,-9999.0,'1111122,1111122,1111122' 
DISL,ioos:station:DISL:CATA:1,2015-07-02T05:30:00Z,30.3085,-88.1395,0.0,3.4,252.9,-9999.0,'1111122,1111122,1111122' 
DISL,ioos:station:DISL:CATA:1,2015-07-02T06:00:00Z,30.3085,-88.1395,0.0,4.64,234.5,-9999.0,'1111122,1111122,1111122' 
DISL,ioos:station:DISL:CATA:1,2015-07-02T06:30:00Z,30.3085,-88.1395,0.0,4.82,228.5,-9999.0,'1111122,1111122,1111122' 
DISL,ioos:station:DISL:CATA:1,2015-07-02T07:00:00Z,30.3085,-88.1395,0.0,4.67,226.0,-9999.0,'1111122,1111122,1111122' 
DISL,ioos:station:DISL:CATA:1,2015-07-02T07:30:00Z,30.3085,-88.1395,0.0,5.72,245.5,-9999.0,'1111122,1111122,1111122' 
DISL,ioos:station:DISL:CATA:1,2015-07-02T08:00:00Z,30.3085,-88.1395,0.0,5.97,245.0,-9999.0,'1111122,1111122,1111122' 
DISL,ioos:station:DISL:CATA:1,2015-07-02T08:30:00Z,30.3085,-88.1395,0.0,5.35,251.4,-9999.0,'1111122,1111122,1111122' 
DISL,ioos:station:DISL:CATA:1,2015-07-02T09:00:00Z,30.3085,-88.1395,0.0,5.68,244.0,-9999.0,'1111122,1111122,1111122' 
DISL,ioos:station:DISL:CATA:1,2015-07-02T09:30:00Z,30.3085,-88.1395,0.0,5.38,226.7,-9999.0,'1111122,1111122,1111122' 
DISL,ioos:station:DISL:CATA:1,2015-07-02T10:00:00Z,30.3085,-88.1395,0.0,6.71,228.9,-9999.0,'1111122,1111122,1111122' 
DISL,ioos:station:DISL:CATA:1,2015-07-02T10:30:00Z,30.3085,-88.1395,0.0,5.09,236.4,-9999.0,'1111122,1111122,1111122' 
DISL,ioos:station:DISL:CATA:1,2015-07-02T11:00:00Z,30.3085,-88.1395,0.0,3.63,245.1,-9999.0,'1111122,1111122,1111122' 
DISL,ioos:station:DISL:CATA:1,2015-07-02T11:30:00Z,30.3085,-88.1395,0.0,5.21,258.6,-9999.0,'1111122,1111122,1111122' 
DISL,ioos:station:DISL:CATA:1,2015-07-02T12:00:00Z,30.3085,-88.1395,0.0,7.29,237.1,-9999.0,'1111122,1111122,1111122' 
DISL,ioos:station:DISL:CATA:1,2015-07-02T12:30:00Z,30.3085,-88.1395,0.0,8.52,240.7,-9999.0,'1111122,1111122,1111122' 
DISL,ioos:station:DISL:CATA:1,2015-07-02T13:00:00Z,30.3085,-88.1395,0.0,7.51,231.2,-9999.0,'1111122,1111122,1111122' 
DISL,ioos:station:DISL:CATA:1,2015-07-02T13:30:00Z,30.3085,-88.1395,0.0,7.88,233.1,-9999.0,'1111122,1111122,1111122' 
DISL,ioos:station:DISL:CATA:1,2015-07-02T14:00:00Z,30.3085,-88.1395,0.0,7.54,235.2,-9999.0,'1111122,1111122,1111122' 
DISL,ioos:station:DISL:CATA:1,2015-07-02T14:30:00Z,30.3085,-88.1395,0.0,8.03,248.5,-9999.0,'1111122,1111122,1111122' 
DISL,ioos:station:DISL:CATA:1,2015-07-02T15:00:00Z,30.3085,-88.1395,0.0,7.43,238.6,-9999.0,'1111122,1111122,1111122' 
DISL,ioos:station:DISL:CATA:1,2015-07-02T15:30:00Z,30.3085,-88.1395,0.0,6.46,219.7,-9999.0,'1111122,1111122,1111122' 
DISL,ioos:station:DISL:CATA:1,2015-07-02T16:00:00Z,30.3085,-88.1395,0.0,5.65,234.6,-9999.0,'1111122,1111122,1111122' 
DISL,ioos:station:DISL:CATA:1,2015-07-02T16:30:00Z,30.3085,-88.1395,0.0,5.97,229.1,-9999.0,'1111122,1111122,1111122' 
DISL,ioos:station:DISL:CATA:1,2015-07-02T17:00:00Z,30.3085,-88.1395,0.0,6.07,232.3,-9999.0,'1111122,1111122,1111122' 
DISL,ioos:station:DISL:CATA:1,2015-07-02T17:30:00Z,30.3085,-88.1395,0.0,5.68,240.4,-9999.0,'1111122,1111122,1111122' 
DISL,ioos:station:DISL:CATA:1,2015-07-02T18:00:00Z,30.3085,-88.1395,0.0,5.44,241.3,-9999.0,'1111122,1111122,1111122' 
DISL,ioos:station:DISL:CATA:1,2015-07-02T18:30:00Z,30.3085,-88.1395,0.0,5.8,245.0,-9999.0,'1111122,1111122,1111122' 
DISL,ioos:station:DISL:CATA:1,2015-07-02T19:00:00Z,30.3085,-88.1395,0.0,5.77,233.8,-9999.0,'1111122,1111122,1111122' 
DISL,ioos:station:DISL:CATA:1,2015-07-02T19:30:00Z,30.3085,-88.1395,0.0,5.69,237.1,-9999.0,'1111122,1111122,1111122' 
DISL,ioos:station:DISL:CATA:1,2015-07-02T20:00:00Z,30.3085,-88.1395,0.0,6.54,239.0,-9999.0,'1111122,1111122,1111122' 
DISL,ioos:station:DISL:CATA:1,2015-07-02T20:30:00Z,30.3085,-88.1395,0.0,7.52,242.4,-9999.0,'1111122,1111122,1111122' 
DISL,ioos:station:DISL:CATA:1,2015-07-02T21:00:00Z,30.3085,-88.1395,0.0,7.55,236.4,-9999.0,'1111122,1111122,1111122' 
DISL,ioos:station:DISL:CATA:1,2015-07-02T21:30:00Z,30.3085,-88.1395,0.0,7.29,233.2,-9999.0,'1111122,1111122,1111122' 
DISL,ioos:station:DISL:CATA:1,2015-07-02T22:00:00Z,30.3085,-88.1395,0.0,7.75,235.0,-9999.0,'1111122,1111122,1111122' 
DISL,ioos:station:DISL:CATA:1,2015-07-02T22:30:00Z,30.3085,-88.1395,0.0,7.73,235.4,-9999.0,'1111122,1111122,1111122' 
DISL,ioos:station:DISL:CATA:1,2015-07-02T23:00:00Z,30.3085,-88.1395,0.0,7.82,233.8,-9999.0,'1111122,1111122,1111122' 
DISL,ioos:station:DISL:CATA:1,2015-07-02T23:30:00Z,30.3085,-88.1395,0.0,7.23,234.2,-9999.0,'1111122,1111122,1111122' 
DISL,ioos:station:DISL:CATA:1,2015-07-03T00:00:00Z,30.3085,-88.1395,0.0,7.35,232.2,-9999.0,'1111122,1111122,1111122' 
DISL,ioos:station:DISL:CATA:1,2015-07-03T00:30:00Z,30.3085,-88.1395,0.0,6.66,228.5,-9999.0,'1111122,1111122,1111122' 
DISL,ioos:station:DISL:CATA:1,2015-07-03T01:00:00Z,30.3085,-88.1395,0.0,5.77,223.8,-9999.0,'1111122,1111122,1111122' 
DISL,ioos:station:DISL:CATA:1,2015-07-03T01:30:00Z,30.3085,-88.1395,0.0,5.58,222.1,-9999.0,'1111122,1111122,1111122' 
DISL,ioos:station:DISL:CATA:1,2015-07-03T02:00:00Z,30.3085,-88.1395,0.0,5.33,222.9,-9999.0,'1111122,1111122,1111122' 
DISL,ioos:station:DISL:CATA:1,2015-07-03T02:30:00Z,30.3085,-88.1395,0.0,5.22,224.5,-9999.0,'1111122,1111122,1111122' 
DISL,ioos:station:DISL:CATA:1,2015-07-03T03:00:00Z,30.3085,-88.1395,0.0,5.09,223.1,-9999.0,'1111122,1111122,1111122' 
DISL,ioos:station:DISL:CATA:1,2015-07-03T03:30:00Z,30.3085,-88.1395,0.0,5.48,217.8,-9999.0,'1111122,1111122,1111122' 
DISL,ioos:station:DISL:CATA:1,2015-07-03T04:00:00Z,30.3085,-88.1395,0.0,6.52,218.2,-9999.0,'1111122,1111122,1111122' 
DISL,ioos:station:DISL:CATA:1,2015-07-03T04:30:00Z,30.3085,-88.1395,0.0,6.71,222.0,-9999.0,'1111122,1111122,1111122' 
DISL,ioos:station:DISL:CATA:1,2015-07-03T05:00:00Z,30.3085,-88.1395,0.0,6.4,229.0,-9999.0,'1111122,1111122,1111122' 
DISL,ioos:station:DISL:CATA:1,2015-07-03T05:30:00Z,30.3085,-88.1395,0.0,6.25,229.8,-9999.0,'1111122,1111122,1111122' 
DISL,ioos:station:DISL:CATA:1,2015-07-03T06:00:00Z,30.3085,-88.1395,0.0,6.46,234.6,-9999.0,'1111122,1111122,1111122' 
DISL,ioos:station:DISL:CATA:1,2015-07-03T06:30:00Z,30.3085,-88.1395,0.0,6.84,239.1,-9999.0,'1111122,1111122,1111122' 
DISL,ioos:station:DISL:CATA:1,2015-07-03T07:00:00Z,30.3085,-88.1395,0.0,7.16,242.5,-9999.0,'1111122,1111122,1111122' 
DISL,ioos:station:DISL:CATA:1,2015-07-03T07:30:00Z,30.3085,-88.1395,0.0,6.89,241.4,-9999.0,'1111122,1111122,1111122' 
DISL,ioos:station:DISL:CATA:1,2015-07-03T08:00:00Z,30.3085,-88.1395,0.0,6.17,241.9,-9999.0,'1111122,1111122,1111122' 
DISL,ioos:station:DISL:CATA:1,2015-07-03T08:30:00Z,30.3085,-88.1395,0.0,5.98,239.1,-9999.0,'1111122,1111122,1111122' 
DISL,ioos:station:DISL:CATA:1,2015-07-03T09:00:00Z,30.3085,-88.1395,0.0,5.64,234.9,-9999.0,'1111122,1111122,1111122' 
DISL,ioos:station:DISL:CATA:1,2015-07-03T09:30:00Z,30.3085,-88.1395,0.0,5.9,244.3,-9999.0,'1111122,1111122,1111122' 
DISL,ioos:station:DISL:CATA:1,2015-07-03T10:00:00Z,30.3085,-88.1395,0.0,6.38,238.7,-9999.0,'1111122,1111122,1111122' 
DISL,ioos:station:DISL:CATA:1,2015-07-03T10:30:00Z,30.3085,-88.1395,0.0,6.29,247.1,-9999.0,'1111122,1111122,1111122' 
DISL,ioos:station:DISL:CATA:1,2015-07-03T11:00:00Z,30.3085,-88.1395,0.0,6.93,247.8,-9999.0,'1111122,1111122,1111122' 
DISL,ioos:station:DISL:CATA:1,2015-07-03T11:30:00Z,30.3085,-88.1395,0.0,7.1,246.8,-9999.0,'1111122,1111122,1111122' 
DISL,ioos:station:DISL:CATA:1,2015-07-03T12:00:00Z,30.3085,-88.1395,0.0,6.74,260.2,-9999.0,'1111122,1111122,1111122' 
DISL,ioos:station:DISL:CATA:1,2015-07-03T12:30:00Z,30.3085,-88.1395,0.0,6.16,261.2,-9999.0,'1111122,1111122,1111122' 
DISL,ioos:station:DISL:CATA:1,2015-07-03T13:00:00Z,30.3085,-88.1395,0.0,6.33,248.2,-9999.0,'1111122,1111122,1111122' 
DISL,ioos:station:DISL:CATA:1,2015-07-03T13:30:00Z,30.3085,-88.1395,0.0,5.33,244.2,-9999.0,'1111122,1111122,1111122' 
DISL,ioos:station:DISL:CATA:1,2015-07-03T14:00:00Z,30.3085,-88.1395,0.0,4.62,239.8,-9999.0,'1111122,1111122,1111122' 
DISL,ioos:station:DISL:CATA:1,2015-07-03T14:30:00Z,30.3085,-88.1395,0.0,5.37,238.4,-9999.0,'1111122,1111122,1111122' 
DISL,ioos:station:DISL:CATA:1,2015-07-03T15:00:00Z,30.3085,-88.1395,0.0,5.66,242.9,-9999.0,'1111122,1111122,1111122' 
DISL,ioos:station:DISL:CATA:1,2015-07-03T15:30:00Z,30.3085,-88.1395,0.0,5.25,241.6,-9999.0,'1111122,1111122,1111122' 
DISL,ioos:station:DISL:CATA:1,2015-07-03T16:00:00Z,30.3085,-88.1395,0.0,4.31,244.1,-9999.0,'1111122,1111122,1111122' 
DISL,ioos:station:DISL:CATA:1,2015-07-03T16:30:00Z,30.3085,-88.1395,0.0,4.73,249.4,-9999.0,'1111122,1111122,1111122' 
DISL,ioos:station:DISL:CATA:1,2015-07-03T17:00:00Z,30.3085,-88.1395,0.0,4.62,240.3,-9999.0,'1111122,1111122,1111122' 
DISL,ioos:station:DISL:CATA:1,2015-07-03T17:30:00Z,30.3085,-88.1395,0.0,4.31,240.4,-9999.0,'1111122,1111122,1111122' 
DISL,ioos:station:DISL:CATA:1,2015-07-03T18:00:00Z,30.3085,-88.1395,0.0,4.39,234.0,-9999.0,'1111122,1111122,1111122' 
DISL,ioos:station:DISL:CATA:1,2015-07-03T18:30:00Z,30.3085,-88.1395,0.0,4.43,234.4,-9999.0,'1111122,1111122,1111122' 
DISL,ioos:station:DISL:CATA:1,2015-07-03T19:00:00Z,30.3085,-88.1395,0.0,4.91,222.9,-9999.0,'1111122,1111122,1111122' 
DISL,ioos:station:DISL:CATA:1,2015-07-03T19:30:00Z,30.3085,-88.1395,0.0,5.19,219.4,-9999.0,'1111122,1111122,1111122' 
DISL,ioos:station:DISL:CATA:1,2015-07-03T20:00:00Z,30.3085,-88.1395,0.0,5.98,211.5,-9999.0,'1111122,1111122,1111122' 
DISL,ioos:station:DISL:CATA:1,2015-07-03T20:30:00Z,30.3085,-88.1395,0.0,6.82,212.0,-9999.0,'1111122,1111122,1111122' 
DISL,ioos:station:DISL:CATA:1,2015-07-03T21:00:00Z,30.3085,-88.1395,0.0,6.51,214.7,-9999.0,'1111122,1111122,1111122' 
DISL,ioos:station:DISL:CATA:1,2015-07-03T21:30:00Z,30.3085,-88.1395,0.0,6.49,208.6,-9999.0,'1111122,1111122,1111122' 
DISL,ioos:station:DISL:CATA:1,2015-07-03T22:00:00Z,30.3085,-88.1395,0.0,6.44,199.9,-9999.0,'1111122,1111122,1111122' 
DISL,ioos:station:DISL:CATA:1,2015-07-03T22:30:00Z,30.3085,-88.1395,0.0,5.48,207.0,-9999.0,'1111122,1111122,1111122' 
DISL,ioos:station:DISL:CATA:1,2015-07-03T23:00:00Z,30.3085,-88.1395,0.0,5.39,208.1,-9999.0,'1111122,1111122,1111122' 
DISL,ioos:station:DISL:CATA:1,2015-07-03T23:30:00Z,30.3085,-88.1395,0.0,5.79,207.4,-9999.0,'1111122,1111122,1111122' 
DISL,ioos:station:DISL:CATA:1,2015-07-04T00:00:00Z,30.3085,-88.1395,0.0,5.76,206.0,-9999.0,'1111122,1111122,1111122' 
DISL,ioos:station:DISL:CATA:1,2015-07-04T00:30:00Z,30.3085,-88.1395,0.0,5.93,209.6,-9999.0,'1111122,1111122,1111122' 
DISL,ioos:station:DISL:CATA:1,2015-07-04T01:00:00Z,30.3085,-88.1395,0.0,6.42,210.7,-9999.0,'1111122,1111122,1111122' 
DISL,ioos:station:DISL:CATA:1,2015-07-04T01:30:00Z,30.3085,-88.1395,0.0,6.53,209.5,-9999.0,'1111122,1111122,1111122' 
DISL,ioos:station:DISL:CATA:1,2015-07-04T02:00:00Z,30.3085,-88.1395,0.0,6.69,207.2,-9999.0,'1111122,1111122,1111122' 
DISL,ioos:station:DISL:CATA:1,2015-07-04T02:30:00Z,30.3085,-88.1395,0.0,6.72,209.1,-9999.0,'1111122,1111122,1111122' 
DISL,ioos:station:DISL:CATA:1,2015-07-04T03:00:00Z,30.3085,-88.1395,0.0,6.91,212.9,-9999.0,'1111122,1111122,1111122' 
DISL,ioos:station:DISL:CATA:1,2015-07-04T03:30:00Z,30.3085,-88.1395,0.0,6.38,213.6,-9999.0,'1111122,1111122,1111122' 
DISL,ioos:station:DISL:CATA:1,2015-07-04T04:00:00Z,30.3085,-88.1395,0.0,6.82,210.4,-9999.0,'1111122,1111122,1111122' 
DISL,ioos:station:DISL:CATA:1,2015-07-04T04:30:00Z,30.3085,-88.1395,0.0,6.33,212.1,-9999.0,'1111122,1111122,1111122' 
DISL,ioos:station:DISL:CATA:1,2015-07-04T05:00:00Z,30.3085,-88.1395,0.0,6.68,212.9,-9999.0,'1111122,1111122,1111122' 
DISL,ioos:station:DISL:CATA:1,2015-07-04T05:30:00Z,30.3085,-88.1395,0.0,7.02,218.9,-9999.0,'1111122,1111122,1111122' 
DISL,ioos:station:DISL:CATA:1,2015-07-04T06:00:00Z,30.3085,-88.1395,0.0,6.33,222.6,-9999.0,'1111122,1111122,1111122' 
DISL,ioos:station:DISL:CATA:1,2015-07-04T06:30:00Z,30.3085,-88.1395,0.0,6.13,221.4,-9999.0,'1111122,1111122,1111122' 
DISL,ioos:station:DISL:CATA:1,2015-07-04T07:00:00Z,30.3085,-88.1395,0.0,6.23,221.5,-9999.0,'1111122,1111122,1111122' 
DISL,ioos:station:DISL:CATA:1,2015-07-04T07:30:00Z,30.3085,-88.1395,0.0,6.62,227.5,-9999.0,'1111122,1111122,1111122' 
DISL,ioos:station:DISL:CATA:1,2015-07-04T08:00:00Z,30.3085,-88.1395,0.0,7.14,225.6,-9999.0,'1111122,1111122,1111122' 
DISL,ioos:station:DISL:CATA:1,2015-07-04T08:30:00Z,30.3085,-88.1395,0.0,7.21,226.2,-9999.0,'1111122,1111122,1111122' 
DISL,ioos:station:DISL:CATA:1,2015-07-04T09:00:00Z,30.3085,-88.1395,0.0,7.22,223.4,-9999.0,'1111122,1111122,1111122' 
DISL,ioos:station:DISL:CATA:1,2015-07-04T09:30:00Z,30.3085,-88.1395,0.0,7.26,242.7,-9999.0,'1111122,1111122,1111122' 
DISL,ioos:station:DISL:CATA:1,2015-07-04T10:00:00Z,30.3085,-88.1395,0.0,6.79,243.6,-9999.0,'1111122,1111122,1111122' 
DISL,ioos:station:DISL:CATA:1,2015-07-04T10:30:00Z,30.3085,-88.1395,0.0,6.76,243.8,-9999.0,'1111122,1111122,1111122' 
DISL,ioos:station:DISL:CATA:1,2015-07-04T11:00:00Z,30.3085,-88.1395,0.0,7.42,245.9,-9999.0,'1111122,1111122,1111122' 
DISL,ioos:station:DISL:CATA:1,2015-07-04T11:30:00Z,30.3085,-88.1395,0.0,7.7,245.1,-9999.0,'1111122,1111122,1111122' 
DISL,ioos:station:DISL:CATA:1,2015-07-04T12:00:00Z,30.3085,-88.1395,0.0,7.41,251.5,-9999.0,'1111122,1111122,1111122' 
DISL,ioos:station:DISL:CATA:1,2015-07-04T12:30:00Z,30.3085,-88.1395,0.0,7.18,248.9,-9999.0,'1111122,1111122,1111122' 
DISL,ioos:station:DISL:CATA:1,2015-07-04T13:00:00Z,30.3085,-88.1395,0.0,7.17,250.2,-9999.0,'1111122,1111122,1111122' 
DISL,ioos:station:DISL:CATA:1,2015-07-04T13:30:00Z,30.3085,-88.1395,0.0,6.3,244.9,-9999.0,'1111122,1111122,1111122' 
DISL,ioos:station:DISL:CATA:1,2015-07-04T14:00:00Z,30.3085,-88.1395,0.0,6.14,245.1,-9999.0,'1111122,1111122,1111122' 
DISL,ioos:station:DISL:CATA:1,2015-07-04T14:30:00Z,30.3085,-88.1395,0.0,5.91,244.2,-9999.0,'1111122,1111122,1111122' 
DISL,ioos:station:DISL:CATA:1,2015-07-04T15:00:00Z,30.3085,-88.1395,0.0,6.4,246.3,-9999.0,'1111122,1111122,1111122' 
DISL,ioos:station:DISL:CATA:1,2015-07-04T15:30:00Z,30.3085,-88.1395,0.0,5.7,247.5,-9999.0,'1111122,1111122,1111122' 
DISL,ioos:station:DISL:CATA:1,2015-07-04T16:00:00Z,30.3085,-88.1395,0.0,5.27,242.1,-9999.0,'1111122,1111122,1111122' 
DISL,ioos:station:DISL:CATA:1,2015-07-04T16:30:00Z,30.3085,-88.1395,0.0,5.72,243.0,-9999.0,'1111122,1111122,1111122' 
DISL,ioos:station:DISL:CATA:1,2015-07-04T17:00:00Z,30.3085,-88.1395,0.0,5.36,243.0,-9999.0,'1111122,1111122,1111122' 
DISL,ioos:station:DISL:CATA:1,2015-07-04T17:30:00Z,30.3085,-88.1395,0.0,5.38,239.2,-9999.0,'1111122,1111122,1111122' 
DISL,ioos:station:DISL:CATA:1,2015-07-04T18:00:00Z,30.3085,-88.1395,0.0,5.75,225.7,-9999.0,'1111122,1111122,1111122' 
DISL,ioos:station:DISL:CATA:1,2015-07-04T18:30:00Z,30.3085,-88.1395,0.0,6.24,221.9,-9999.0,'1111122,1111122,1111122' 
DISL,ioos:station:DISL:CATA:1,2015-07-04T19:00:00Z,30.3085,-88.1395,0.0,5.48,219.5,-9999.0,'1111122,1111122,1111122' 
DISL,ioos:station:DISL:CATA:1,2015-07-04T19:30:00Z,30.3085,-88.1395,0.0,6.36,219.4,-9999.0,'1111122,1111122,1111122' 
DISL,ioos:station:DISL:CATA:1,2015-07-04T20:00:00Z,30.3085,-88.1395,0.0,6.29,216.7,-9999.0,'1111122,1111122,1111122' 
DISL,ioos:station:DISL:CATA:1,2015-07-04T20:30:00Z,30.3085,-88.1395,0.0,7.37,217.9,-9999.0,'1111122,1111122,1111122' 
DISL,ioos:station:DISL:CATA:1,2015-07-04T21:00:00Z,30.3085,-88.1395,0.0,7.22,220.4,-9999.0,'1111122,1111122,1111122' 
DISL,ioos:station:DISL:CATA:1,2015-07-04T21:30:00Z,30.3085,-88.1395,0.0,6.74,230.8,-9999.0,'1111122,1111122,1111122' 
DISL,ioos:station:DISL:CATA:1,2015-07-04T22:00:00Z,30.3085,-88.1395,0.0,6.47,233.8,-9999.0,'1111122,1111122,1111122' 
DISL,ioos:station:DISL:CATA:1,2015-07-04T22:30:00Z,30.3085,-88.1395,0.0,4.8,229.1,-9999.0,'1111122,1111122,1111122' 
DISL,ioos:station:DISL:CATA:1,2015-07-04T23:00:00Z,30.3085,-88.1395,0.0,4.91,227.8,-9999.0,'1111122,1111122,1111122' 
DISL,ioos:station:DISL:CATA:1,2015-07-04T23:30:00Z,30.3085,-88.1395,0.0,4.87,243.3,-9999.0,'1111122,1111122,1111122' 
DISL,ioos:station:DISL:CATA:1,2015-07-05T00:00:00Z,30.3085,-88.1395,0.0,10.12,328.5,-9999.0,'1111122,1111122,1111122' 
DISL,ioos:station:DISL:CATA:1,2015-07-05T00:30:00Z,30.3085,-88.1395,0.0,4.25,344.8,-9999.0,'1111122,1111122,1111122' 
DISL,ioos:station:DISL:CATA:1,2015-07-05T01:00:00Z,30.3085,-88.1395,0.0,1.78,7.791,-9999.0,'1111122,1111122,1111122' 
DISL,ioos:station:DISL:CATA:1,2015-07-05T01:30:00Z,30.3085,-88.1395,0.0,2.34,12.13,-9999.0,'1111122,1111122,1111122' 
DISL,ioos:station:DISL:CATA:1,2015-07-05T02:00:00Z,30.3085,-88.1395,0.0,0.39,296.9,-9999.0,'1111122,1111122,1111122' 
DISL,ioos:station:DISL:CATA:1,2015-07-05T02:30:00Z,30.3085,-88.1395,0.0,3.49,123.1,-9999.0,'1111122,1111122,1111122' 
DISL,ioos:station:DISL:CATA:1,2015-07-05T03:00:00Z,30.3085,-88.1395,0.0,2.58,127.8,-9999.0,'1111122,1111122,1111122' 
DISL,ioos:station:DISL:CATA:1,2015-07-05T03:30:00Z,30.3085,-88.1395,0.0,2.75,142.9,-9999.0,'1111122,1111122,1111122' 
DISL,ioos:station:DISL:CATA:1,2015-07-05T04:00:00Z,30.3085,-88.1395,0.0,4.42,151.3,-9999.0,'1111122,1111122,1111122' 
DISL,ioos:station:DISL:CATA:1,2015-07-05T04:30:00Z,30.3085,-88.1395,0.0,4.65,157.1,-9999.0,'1111122,1111122,1111122' 